Time,TemperatureF,DewpointF,PressureIn,WindDirection,WindDirectionDegrees,WindSpeedMPH,WindSpeedGustMPH,Humidity,HourlyPrecipIn,Conditions,Clouds,dailyrainin,SoftwareType,DateUTC
2014-10-02 00:00:00,46.3,25.6,30.14,NNE,22,0.0,0.0,44,0.00,,---,0.00,VWS V14.01,2014-10-02 07:00:00,
2014-10-02 00:05:00,46.2,26.0,30.15,NNE,22,0.0,0.0,45,0.00,,---,0.00,VWS V14.01,2014-10-02 07:05:00,
2014-10-02 00:10:00,46.2,26.0,30.15,NNE,22,1.0,2.0,45,0.00,,---,0.00,VWS V14.01,2014-10-02 07:10:00,
2014-10-02 00:15:00,46.1,26.0,30.15,NNE,22,1.0,2.0,45,0.00,,---,0.00,VWS V14.01,2014-10-02 07:15:00,
2014-10-02 00:20:00,46.0,25.9,30.15,NNE,22,1.0,3.0,45,0.00,,---,0.00,VWS V14.01,2014-10-02 07:20:00,
2014-10-02 00:25:00,46.0,25.9,30.15,NNE,22,0.0,2.0,45,0.00,,---,0.00,VWS V14.01,2014-10-02 07:25:00,
2014-10-02 00:30:00,46.0,25.9,30.15,NNE,22,0.0,3.0,45,0.00,,---,0.00,VWS V14.01,2014-10-02 07:30:00,
2014-10-02 00:35:00,46.0,25.9,30.15,NNE,22,0.0,2.0,45,0.00,,---,0.00,VWS V14.01,2014-10-02 07:35:00,
2014-10-02 00:40:00,46.0,25.9,30.15,NNE,22,1.0,2.0,45,0.00,,---,0.00,VWS V14.01,2014-10-02 07:40:00,
2014-10-02 00:45:00,45.9,25.8,30.15,NNE,22,0.0,2.0,45,0.00,,---,0.00,VWS V14.01,2014-10-02 07:45:00,
2014-10-02 00:50:00,45.9,25.8,30.15,NNE,22,2.0,3.0,45,0.00,,---,0.00,VWS V14.01,2014-10-02 07:50:00,
2014-10-02 00:55:00,45.8,25.7,30.15,NNE,22,1.0,3.0,45,0.00,,---,0.00,VWS V14.01,2014-10-02 07:55:00,
2014-10-02 01:00:00,45.7,25.6,30.15,NNE,22,2.0,2.0,45,0.00,,---,0.00,VWS V14.01,2014-10-02 08:00:00,
2014-10-02 01:05:00,45.6,26.0,30.15,NNE,22,0.0,3.0,46,0.00,,---,0.00,VWS V14.01,2014-10-02 08:05:00,
2014-10-02 01:10:00,45.5,25.9,30.16,NNE,22,2.0,3.0,46,0.00,,---,0.00,VWS V14.01,2014-10-02 08:10:00,
2014-10-02 01:15:00,45.3,26.8,30.16,NNE,22,2.0,2.0,48,0.00,,---,0.00,VWS V14.01,2014-10-02 08:15:00,
2014-10-02 01:20:00,45.2,25.7,30.16,NNE,22,0.0,3.0,46,0.00,,---,0.00,VWS V14.01,2014-10-02 08:20:00,
2014-10-02 01:25:00,45.1,25.6,30.16,NNE,22,1.0,2.0,46,0.00,,---,0.00,VWS V14.01,2014-10-02 08:25:00,
2014-10-02 01:30:00,45.1,25.6,30.16,NNE,22,2.0,4.0,46,0.00,,---,0.00,VWS V14.01,2014-10-02 08:30:00,
2014-10-02 01:35:00,45.1,26.1,30.16,NNE,22,3.0,3.0,47,0.00,,---,0.00,VWS V14.01,2014-10-02 08:35:00,
2014-10-02 01:40:00,45.0,26.0,30.16,NNE,22,3.0,4.0,47,0.00,,---,0.00,VWS V14.01,2014-10-02 08:40:00,
2014-10-02 01:45:00,45.0,26.5,30.16,NNE,22,0.0,2.0,48,0.00,,---,0.00,VWS V14.01,2014-10-02 08:45:00,
2014-10-02 01:50:00,44.9,25.9,30.16,NNE,22,2.0,3.0,47,0.00,,---,0.00,VWS V14.01,2014-10-02 08:50:00,
2014-10-02 01:55:00,44.7,25.7,30.17,NNE,21,4.0,4.0,47,0.00,,---,0.00,VWS V14.01,2014-10-02 08:55:00,
2014-10-02 02:00:00,44.4,26.5,30.17,North,9,3.0,3.0,49,0.00,,---,0.00,VWS V14.01,2014-10-02 09:00:00,
2014-10-02 02:05:00,44.2,26.3,30.17,North,9,2.0,5.0,49,0.00,,---,0.00,VWS V14.01,2014-10-02 09:05:00,
2014-10-02 02:10:00,44.1,26.2,30.17,North,9,1.0,2.0,49,0.00,,---,0.00,VWS V14.01,2014-10-02 09:10:00,